Location: Unspecified
(0.0000°N, 0.0000°E)
Time: 04:43:35
(UTC+00:00)

Vanguard 1 - Pass Details

Date: 19 December 2023
Orbit: 653 x 3826 km, 34.3° (Epoch: 22 February)

Event Time Altitude Azimuth Distance (km) Brightness Sun altitude
Rises 23:47:02 0° 294° (WNW) 7,673 14.5 -66.5°
Reaches altitude 10° 23:52:16 10° 290° (WNW) 6,821 14.2 -66.6°
Enters shadow 23:53:12 12° 289° (WNW) 6,671 14.1 -66.6°
Maximum altitude 00:14:51 53° 219° (SW) 4,066 - -66.2°
Exits shadow 00:20:46 45° 179° (S) 4,071 13.0 -65.9°
Drops below altitude 10° 00:32:09 10° 144° (SE) 5,343 14.0 -65.1°
Sets 00:35:43 0° 139° (SE) 5,991 14.4 -64.8°
